Regional Weather Roundup
Issued by NWS Cleveland, OH

Home | Current Version | Previous Version | Graphics & Text | Print | Product List | Glossary On
Versions: 1 2 3 4 5 6 7 8 9 10 11 12 13 14 15 16 17 18 19 20 21 22 23 24 25 26 27 28 29 30 31 32 33 34 35 36 37 38 39 40 41 42 43 44 45 46 47 48 49 50
000
ASUS41 KCLE 292202
RWRCLE
OHIO REGIONAL WEATHER ROUNDUP
NATIONAL WEATHER SERVICE CLEVELAND, OH
600 PM EDT SUN MAR 29 2015

NOTE: "FAIR" INDICATES FEW OR NO CLOUDS BELOW 12,000 FEET WITH NO
SIGNIFICANT WEATHER AND/OR OBSTRUCTIONS TO VISIBILITY.

OHZ001>008-015>018-024>027-034-035-043-044-292300-
   NORTHWEST OHIO

CITY           SKY/WX    TMP DP  RH WIND       PRES   REMARKS
DEFIANCE       NOT AVBL
FINDLAY        LGT RAIN  43  23  45 S20G29    29.91F
TOLEDO EXPRESS CLOUDY    41  22  46 S8G18     29.90F
TOLEDO EXEC    CLOUDY    43  21  41 S20G29    29.91F
LIMA           CLOUDY    44  22  41 S18G26    29.92F
$$

OHZ009>014-019>023-028>033-038-089-292300-
   NORTHEAST OHIO

CITY           SKY/WX    TMP DP  RH WIND       PRES   REMARKS
CLE-HOPKINS    CLOUDY    44  13  28 S22G32    29.96F
CLE-LAKEFRONT  CLOUDY    45  10  24 S26G38    29.93F
CUY CO. ARPT   PTSUNNY   45  14  29 S17G29    29.96F
LORAIN-ELYRIA  LGT RAIN  43  15  32 S24G33    29.93F
ASHTABULA      CLOUDY    42  14  32 S15G26    29.98F
AKRON-CANTON   CLOUDY    44  12  27 S21G33    30.00F
WOOSTER        PTSUNNY   42  17  36 S14G23    29.98F
MANSFIELD      CLOUDY    42  16  34 S23G31    29.95F
YOUNGSTOWN     CLOUDY    42  10  27 S15G26    30.01F
$$

OHZ042-051>053-060>062-070>072-077>081-292300-
  SOUTHWEST OHIO

CITY           SKY/WX    TMP DP  RH WIND       PRES   REMARKS
CINC-COVINGTON CLOUDY    50  17  27 S14       29.97F
CINC-LUNKEN    CLOUDY    51  16  24 S9        30.00F
HAMILTON       CLOUDY    51  12  21 S10G20    29.97F
DAYTON         LGT RAIN  47  16  29 S20G28    29.95F
WRIGHT-PAT AFB NOT AVBL
DAYTON GENERAL CLOUDY    47  16  29 S16       29.96F
WILMINGTON     CLOUDY    46  14  27 S15G24    29.98F
$$

OHZ036-037-039>041-045>050-054>059-063>069-073>076-082>088-292300-
  CENTRAL AND SOUTHEAST OHIO

CITY           SKY/WX    TMP DP  RH WIND       PRES   REMARKS
COLUMBUS       CLOUDY    46  12  25 S13       30.00F
OSU AIRPORT    CLOUDY    46  13  26 S15G25    29.98F
BOLTON FIELD   NOT AVBL
RICKENBACK AFB NOT AVBL
NEWARK         PTSUNNY   47   9  21 S14G23    30.01F
MARION         CLOUDY    44  15  31 S17G30    29.95F
LANCASTER      CLOUDY    47   8  20 S18G25    30.02F
ZANESVILLE     PTSUNNY   45   8  22 S15       30.05F
NEW PHILLY     PTSUNNY   47  10  22 S9G20     30.05F
$$


USA.gov is the U.S. government's official web portal to all federal, state and local government web resources and services.